Wind_Speed
16 15 15 15 15 15 15 15 15 14 14 13 13 13 12 12 11 11 10 10 9 8 8 9 9 9 9 9 9 8 8 8 7 7 7 7 7 7 7 7 7 7 7
18 18 17 17 17 17 17 17 17 16 16 16 15 15 15 14 14 13 12 12 11 10 10 10 10 10 10 10 10 10 10 9 9 9 9 9 9 9 9 9 9 8 8
21 20 20 19 19 19 19 19 19 18 18 18 18 17 17 16 16 16 15 14 13 12 12 12 12 12 12 12 11 11 12 11 11 10 10 10 10 10 10 10 10 10 10
23 23 23 22 22 22 21 21 21 21 20 20 20 20 19 19 18 17 17 16 16 15 14 14 13 13 13 13 13 13 13 13 13 12 12 12 11 11 11 11 11 11 11
26 26 26 25 25 24 24 23 23 23 23 23 22 22 22 21 20 20 19 19 18 17 17 16 16 15 15 14 14 14 14 15 14 14 14 13 13 12 12 12 12 12 12
29 28 28 28 28 27 27 26 25 25 25 25 25 24 24 23 23 22 22 21 21 20 19 18 18 18 17 17 16 16 16 16 16 16 16 15 15 14 14 14 13 13 13
31 31 31 31 30 30 29 29 28 28 27 27 26 26 26 26 25 24 24 24 23 22 22 21 20 20 19 18 18 18 17 17 17 17 17 17 16 16 15 15 15 15 14
34 34 33 33 33 33 32 31 31 30 30 29 29 28 28 28 27 27 26 26 25 25 25 24 23 23 22 21 20 19 19 19 18 18 18 18 18 18 17 17 17 16 16
36 36 36 36 36 35 35 34 34 33 33 32 31 31 30 30 29 29 29 28 27 26 27 27 26 25 24 24 23 22 21 21 20 20 20 20 19 19 19 19 19 19 18
38 39 39 38 38 38 38 38 37 36 36 35 35 34 33 33 32 32 31 30 29 29 28 29 28 27 26 25 25 25 24 23 23 22 22 22 21 21 21 21 21 20 20
41 41 41 41 41 41 41 40 40 39 39 39 38 37 37 36 35 34 33 32 32 31 31 30 30 30 29 27 27 27 26 25 25 24 24 24 23 23 22 22 23 22 22
42 43 43 43 43 43 43 43 43 43 42 42 41 41 40 39 38 37 36 35 34 34 34 32 31 31 30 30 29 29 29 28 27 27 26 26 26 25 24 24 24 24 24
43 43 44 44 44 44 45 45 45 45 45 45 45 44 43 42 41 40 39 38 37 37 36 35 34 33 32 32 32 31 31 30 29 29 28 28 28 27 27 26 26 26 26
42 43 44 44 45 46 46 46 46 46 46 46 46 46 46 45 44 43 42 41 40 39 38 38 36 35 34 33 33 33 32 32 31 31 31 30 30 29 29 28 27 27 27
42 43 45 46 46 47 47 47 47 48 48 48 47 47 48 47 47 46 45 44 43 42 41 40 38 37 37 36 34 35 35 34 33 33 33 33 32 32 31 30 29 29 29
42 43 45 45 46 47 48 49 49 49 49 50 50 51 50 49 48 48 47 46 45 45 44 43 41 40 39 38 37 36 36 36 35 35 34 34 34 33 33 32 31 31 31
42 43 44 45 46 47 47 48 50 50 50 51 51 51 51 51 51 50 49 49 48 47 46 45 44 43 42 41 40 39 38 38 37 36 36 36 36 35 34 34 34 33 33
42 42 42 44 45 46 46 47 49 50 51 51 52 52 53 53 53 52 52 52 51 50 48 47 46 45 44 44 43 42 41 40 39 38 38 37 37 37 36 36 36 36 35
41 41 41 42 42 43 44 45 46 48 49 50 51 52 53 54 55 54 54 53 53 52 51 50 49 48 47 46 46 45 44 43 42 40 39 39 39 38 37 37 37 38 37
39 40 40 41 42 43 43 44 45 45 46 47 49 50 52 53 54 55 55 55 55 54 53 52 51 50 49 48 48 47 46 45 45 42 41 40 41 40 40 39 39 39 39
38 39 40 41 42 43 44 44 44 45 46 47 48 49 50 52 53 53 53 54 55 55 55 53 53 53 51 50 49 48 48 47 47 44 43 42 42 42 42 42 41 41 40
36 36 37 39 41 42 43 43 44 45 46 46 47 48 49 51 52 53 53 54 54 55 55 54 54 53 52 51 50 49 49 49 49 47 45 44 43 43 43 43 43 43 42
35 36 36 37 39 40 41 42 42 43 44 45 46 47 49 50 51 53 54 54 53 53 53 54 53 52 52 52 52 51 51 51 48 47 45 45 45 45 44 44 44 44 45
33 33 34 35 35 37 38 39 41 41 42 43 44 45 46 48 49 51 52 53 54 53 53 52 52 53 54 54 54 53 53 51 50 48 47 47 46 46 46 46 47 46 46
29 30 31 32 33 33 35 36 38 39 40 41 42 43 44 45 47 48 49 50 52 52 52 52 52 52 53 54 53 52 52 53 52 51 50 50 50 48 48 48 48 49 49
29 30 30 31 31 32 33 34 35 37 39 40 41 42 43 43 43 45 47 48 49 50 50 51 52 52 51 51 52 53 53 52 52 52 52 51 51 49 49 49 50 50 51
Wind_Direction
245 246 246 246 247 248 250 252 253 256 258 259 259 262 266 268 271 272 274 277 280 279 279 278 278 275 273 272 270 267 267 268 268 267 268 268 267 268 272 276 282 290 297
245 247 248 248 248 250 251 252 253 255 257 258 259 260 262 265 267 269 271 273 275 277 277 276 275 275 271 271 270 268 267 267 267 268 271 273 272 272 273 275 280 286 291
247 247 249 249 250 250 252 253 253 254 255 257 258 259 260 261 263 265 267 269 271 273 274 275 274 274 273 270 269 268 267 267 268 270 272 273 274 275 275 277 280 283 288
248 249 249 249 250 251 253 253 254 254 255 257 258 258 258 260 261 263 264 265 267 268 270 271 273 274 274 272 270 269 268 268 269 270 271 272 274 276 277 280 282 283 285
249 250 250 251 251 252 254 255 255 255 256 256 257 258 258 259 260 261 262 262 263 266 268 269 270 272 274 274 272 270 269 269 269 270 271 272 273 275 277 280 282 284 284
249 251 252 252 253 254 255 255 256 256 257 257 257 257 257 258 259 260 260 261 261 263 265 266 267 269 271 272 273 273 271 270 270 270 271 271 272 275 276 278 280 283 285
251 252 252 254 255 255 255 255 256 256 257 258 257 256 256 257 258 259 259 260 260 260 261 264 265 266 268 268 269 271 273 273 271 271 271 271 272 273 274 276 278 281 284
253 254 254 254 255 256 256 257 257 257 257 258 258 257 257 257 257 258 259 259 260 260 260 262 264 265 265 266 266 268 270 271 272 271 271 271 271 272 273 275 276 278 282
253 254 255 255 256 257 257 258 258 258 258 258 257 257 257 257 257 258 258 258 259 261 261 260 261 263 264 264 264 265 267 268 270 271 270 270 271 272 273 274 275 277 279
254 254 255 256 257 257 257 258 258 258 258 258 258 257 257 256 257 257 257 258 258 260 260 260 260 260 261 262 261 262 264 265 267 270 270 269 270 271 272 273 274 275 278
254 254 255 256 257 257 257 258 258 258 258 257 257 257 257 257 257 257 257 258 258 258 259 260 259 259 259 260 260 260 261 263 265 268 269 269 269 271 272 272 273 274 276
255 255 256 256 257 256 256 257 257 257 257 257 257 256 256 256 257 257 257 258 258 258 259 259 260 259 259 259 259 260 261 262 264 266 268 268 269 270 271 272 273 274 275
256 256 257 257 257 257 256 256 257 257 258 257 256 256 256 256 256 256 257 257 257 258 258 258 259 259 259 259 259 259 260 261 263 265 266 267 268 269 270 271 272 273 273
256 256 257 258 258 258 258 257 256 256 256 257 256 255 255 255 255 256 256 257 257 257 257 257 257 258 258 260 260 259 261 262 262 263 265 266 267 268 269 270 271 272 273
257 257 258 258 258 258 258 257 256 256 255 255 255 256 255 255 255 255 255 255 256 256 256 255 256 257 258 258 260 260 261 262 263 263 263 265 266 267 268 269 269 271 272
258 259 260 260 260 259 258 257 257 256 256 256 255 255 255 255 255 254 254 254 255 255 254 254 255 255 256 257 258 260 261 262 263 264 264 264 265 266 267 268 269 270 271
260 260 260 261 261 260 259 258 256 256 256 256 255 255 255 255 254 254 253 253 254 254 253 253 254 254 255 256 258 259 261 262 263 263 264 265 265 265 265 266 268 270 271
261 261 261 262 262 261 259 259 258 257 257 256 255 255 255 255 254 254 253 253 253 253 252 253 253 253 255 255 257 258 260 262 262 263 264 266 265 264 265 265 268 270 271
262 262 262 262 262 262 262 261 260 259 257 257 256 255 255 254 254 254 253 253 252 251 251 252 253 253 254 255 256 257 258 260 261 263 265 266 265 264 264 265 267 269 270
262 263 264 264 263 262 263 262 262 260 258 257 256 255 254 253 253 252 252 253 252 250 250 251 252 252 254 255 256 256 257 258 259 260 263 264 264 264 263 264 267 269 270
263 264 266 265 264 264 263 263 263 261 259 258 256 255 254 253 252 251 252 252 251 250 250 250 251 251 252 253 255 256 256 257 258 258 260 261 263 264 264 264 266 268 270
265 266 266 265 265 264 263 262 263 262 260 258 257 256 255 254 252 251 251 251 250 249 248 249 250 251 251 253 254 255 256 256 257 258 259 260 261 262 263 264 266 267 269
266 267 267 267 266 265 263 263 262 261 260 258 257 257 256 254 252 251 250 249 249 249 248 249 249 250 251 252 253 254 255 256 255 256 258 259 260 261 263 264 265 268 269
269 269 269 270 269 267 265 264 262 261 260 257 257 257 256 255 253 251 249 249 249 248 247 247 248 250 251 251 252 253 254 255 255 253 256 258 259 261 262 264 266 267 269
271 271 271 272 271 269 267 265 264 261 259 258 258 257 256 256 255 253 251 249 247 247 247 247 248 250 251 252 252 252 253 255 255 255 255 257 259 261 262 264 267 268 269
272 272 273 272 272 271 269 268 266 263 261 259 258 258 257 256 255 253 251 249 248 247 247 247 248 250 251 252 253 252 253 254 254 256 258 258 259 260 261 264 267 269 269
Height
5870 5871 5872 5873 5874 5875 5875 5876 5877 5878 5879 5880 5881 5881 5882 5883 5883 5883 5884 5884 5884 5884 5884 5884 5884 5884 5884 5884 5884 5883 5883 5883 5882 5882 5881 5881 5880 5880 5879 5879 5878 5877 5877
5867 5868 5869 5870 5871 5872 5873 5874 5875 5876 5877 5877 5878 5879 5880 5881 5881 5882 5882 5882 5882 5883 5883 5883 5883 5883 5883 5883 5882 5882 5882 5882 5881 5881 5880 5880 5879 5879 5878 5878 5877 5876 5875
5864 5865 5866 5867 5868 5869 5870 5871 5872 5873 5874 5875 5876 5876 5877 5878 5879 5879 5880 5880 5880 5881 5881 5881 5881 5881 5881 5881 5881 5881 5881 5880 5880 5880 5879 5879 5878 5877 5877 5876 5875 5875 5874
5860 5861 5862 5863 5864 5865 5866 5868 5869 5870 5871 5872 5872 5873 5874 5875 5876 5877 5877 5878 5878 5878 5879 5879 5879 5879 5879 5879 5879 5879 5879 5878 5878 5878 5878 5877 5876 5876 5875 5875 5874 5873 5872
5855 5856 5858 5859 5860 5861 5863 5864 5865 5866 5867 5868 5869 5870 5871 5872 5873 5873 5874 5875 5875 5876 5876 5876 5876 5877 5877 5877 5877 5877 5876 5876 5876 5876 5876 5875 5875 5874 5873 5873 5872 5871 5870
5850 5851 5853 5854 5855 5857 5858 5860 5861 5862 5863 5864 5865 5866 5867 5868 5869 5870 5871 5871 5872 5873 5873 5873 5874 5874 5874 5874 5874 5874 5874 5874 5873 5873 5873 5873 5872 5872 5871 5871 5870 5869 5868
5845 5846 5848 5849 5850 5852 5853 5855 5856 5857 5858 5859 5861 5862 5863 5863 5864 5865 5866 5867 5868 5869 5869 5870 5870 5871 5871 5871 5871 5871 5871 5871 5871 5871 5870 5870 5870 5869 5869 5868 5867 5867 5866
5838 5840 5842 5843 5845 5846 5848 5849 5850 5852 5853 5854 5856 5857 5858 5859 5860 5861 5862 5863 5864 5864 5865 5866 5866 5867 5867 5868 5868 5868 5868 5868 5868 5867 5867 5867 5867 5866 5866 5865 5865 5864 5863
5832 5833 5835 5837 5838 5840 5841 5843 5844 5846 5847 5848 5850 5851 5852 5853 5855 5856 5857 5858 5859 5860 5860 5861 5862 5862 5863 5863 5864 5864 5864 5864 5864 5864 5863 5863 5863 5863 5862 5862 5861 5861 5860
5825 5826 5828 5829 5831 5833 5834 5836 5837 5839 5840 5842 5843 5845 5846 5847 5849 5850 5851 5852 5853 5854 5855 5856 5856 5857 5858 5858 5859 5860 5860 5860 5860 5860 5859 5859 5859 5859 5859 5858 5858 5857 5856
5817 5818 5820 5822 5823 5825 5826 5828 5829 5831 5833 5834 5836 5838 5839 5841 5842 5844 5845 5846 5848 5849 5849 5850 5851 5852 5852 5853 5854 5854 5855 5855 5855 5855 5855 5855 5855 5855 5854 5854 5853 5853 5852
5808 5810 5812 5813 5814 5816 5818 5819 5821 5822 5824 5826 5828 5830 5831 5833 5835 5837 5838 5840 5841 5842 5843 5844 5845 5846 5847 5848 5848 5849 5849 5850 5850 5851 5850 5850 5850 5850 5850 5849 5849 5848 5848
5799 5801 5802 5804 5805 5807 5808 5810 5812 5813 5815 5817 5819 5821 5823 5825 5827 5829 5831 5832 5834 5835 5836 5838 5839 5840 5841 5841 5842 5843 5843 5844 5845 5845 5845 5845 5845 5845 5845 5844 5844 5843 5843
5790 5792 5793 5794 5795 5797 5798 5800 5802 5804 5805 5807 5809 5811 5813 5815 5818 5820 5822 5824 5826 5827 5829 5830 5832 5833 5834 5835 5836 5837 5837 5838 5839 5839 5839 5839 5839 5839 5839 5839 5838 5838 5838
5781 5782 5783 5784 5785 5786 5788 5789 5791 5793 5795 5797 5799 5801 5803 5806 5808 5810 5813 5815 5817 5819 5820 5822 5824 5826 5827 5828 5829 5830 5831 5831 5832 5832 5833 5833 5833 5833 5833 5833 5833 5832 5832
5772 5772 5773 5774 5775 5776 5777 5778 5780 5782 5784 5786 5788 5790 5792 5795 5798 5800 5803 5805 5807 5810 5811 5813 5816 5817 5819 5820 5821 5823 5823 5824 5825 5825 5826 5826 5826 5826 5826 5826 5826 5826 5826
5762 5762 5763 5763 5764 5764 5765 5767 5768 5770 5772 5774 5777 5779 5781 5783 5786 5789 5792 5795 5797 5799 5801 5804 5806 5808 5810 5811 5813 5815 5816 5816 5817 5818 5818 5819 5819 5819 5819 5819 5819 5819 5819
5752 5752 5752 5753 5753 5753 5754 5755 5757 5758 5761 5762 5765 5767 5769 5772 5774 5777 5780 5783 5786 5788 5791 5794 5797 5799 5801 5803 5804 5806 5807 5808 5809 5810 5810 5810 5811 5811 5811 5811 5811 5811 5811
5742 5742 5742 5743 5743 5743 5744 5744 5745 5746 5748 5750 5752 5754 5757 5759 5762 5765 5768 5771 5774 5777 5780 5783 5786 5789 5791 5793 5795 5796 5798 5799 5800 5801 5801 5802 5802 5802 5803 5803 5803 5803 5803
5732 5732 5733 5733 5733 5733 5733 5734 5734 5735 5736 5738 5739 5742 5744 5746 5749 5752 5755 5759 5762 5765 5769 5772 5775 5778 5780 5783 5784 5786 5788 5789 5790 5791 5792 5793 5793 5794 5794 5794 5794 5794 5794
5723 5723 5723 5722 5722 5722 5722 5722 5723 5724 5725 5726 5727 5729 5731 5733 5736 5739 5743 5746 5749 5753 5756 5760 5763 5766 5769 5771 5773 5775 5777 5779 5780 5782 5783 5783 5784 5784 5784 5785 5785 5785 5785
5713 5713 5712 5711 5711 5711 5711 5711 5711 5712 5712 5714 5715 5717 5719 5721 5723 5726 5730 5733 5737 5740 5744 5747 5750 5753 5756 5759 5762 5764 5766 5768 5769 5771 5772 5773 5774 5774 5774 5775 5775 5775 5775
5704 5703 5702 5701 5700 5699 5699 5699 5699 5700 5700 5701 5702 5704 5706 5708 5710 5714 5717 5721 5724 5728 5731 5735 5738 5741 5745 5747 5749 5752 5754 5757 5759 5760 5761 5762 5763 5764 5764 5764 5764 5764 5764
5694 5693 5692 5691 5689 5688 5688 5687 5687 5688 5689 5689 5691 5692 5693 5695 5698 5701 5704 5707 5711 5715 5719 5722 5726 5729 5732 5735 5737 5739 5742 5744 5747 5749 5750 5751 5752 5752 5753 5753 5752 5752 5752
5686 5685 5683 5682 5680 5679 5677 5676 5676 5676 5677 5678 5679 5681 5682 5684 5686 5688 5691 5694 5698 5702 5706 5710 5713 5716 5718 5721 5724 5726 5728 5731 5733 5736 5739 5740 5740 5741 5741 5741 5741 5740 5740
5679 5677 5675 5674 5672 5670 5668 5667 5666 5666 5666 5667 5668 5669 5671 5672 5674 5676 5678 5681 5685 5689 5693 5697 5700 5702 5705 5707 5710 5712 5715 5718 5721 5723 5725 5727 5728 5729 5728 5728 5728 5728 5727